CZ-6A DEB, 54347

Orbit data source: Space-Track

CZ-6A DEB, 54347 is space debris in SSO originally from a launch on Fri, 11 Nov 2022 UTC launched from the Taiyaun Space Center, China (TSC). Debris objects in space refer to the collection of defunct objects orbiting the Earth. Examples of debris include non-operational satellites, rocket bodies, and fragments generated from explosions, collisions, or faulty payload assembly.

Loading next visibility...
Identifier
54347, 2022-151CS
Orbit
SSO
Country
Flag of CNCN / PRC
Related business
Manufacturer
SAST
Mission
Spacecraft
Bus & Motor
Unknown
Mass
Unknown
Launch date (UTC)
2022-11-11 (4 years ago)
Launch vehicle
Unknown
Launch site
Taiyaun Space Center, China (TSC)
Object type
Payload
Rocket body
Debris
Shape & HBR
Unknown shape, 0.1 m
Radar Cross Section
Small (<0.1 m²)

Expand to show TLE details & history
Last TLE update: 14 hours ago

TLE from 14 hours ago
0 CZ-6A DEB
1 54347U 22151CS  26206.50545815  .00000356  00000-0  14813-3 0  9997
2 54347  98.6640 227.7016 0104004 333.1306  26.4511 14.29565275192389
Epoch: 2026-07-25T12:07Z
TLE epoch observation values (Epoch: 2026-07-25T12:07:51.584Z)
Latitude
-0.00005°
Longitude
102.5199°
Altitude
729.48 km
Speed
7.525 km/s
True Right ascension
15h 10m 48s
True Declination
0° 00' 00"
Sunlit
Object was in daylight at epoch
Visualization orbit readout
Latitude
Unknown
Longitude
Unknown
Altitude
Unknown
Speed
Unknown
Apparent Right ascension
Unknown
Apparent Declination
Unknown
Sunlit
N/A
Visualization observer readout
Local Sidereal Time
15:43:49
Azimuth
Unknown
Elevation
Unknown
Doppler factor
Unknown
Orbital elements
Apogee altitude
864.882 km
Perigee altitude
715.773 km
Semi-major axis
7,168.464 km
Eccentricity
0.0104
Inclination
98.664°
RAAN
227.7016°
Arg. of periapsis
333.1306°
True anomaly
26.98821°
Mean anomaly
26.4511°
Eccentric anomaly
26.71903°
Mean motion
3.57605 °/min
Orbital period
100.67 mins
BSTAR
0.00014813
Loading maneuver chart data...
Computing Atmospheric mass density...

Documentation

Showing up to 5 results
|